Location: Silent Lake
(44.9206°N, 78.0708°W)
Time: 18:33:18
(UTC-04:00)

Daily predictions for brighter satellites

Satellite Brightness Start Highest point End
(mag) Time Altitude Azimuth Time Altitude Azimuth Time Altitude Azimuth
NOSS 2-2 (E) 3.8 21:09:56 10° SSW 21:13:47 44° ESE 21:18:13 10° NE
DNEPR-1 R/B 4.2 21:11:25 10° NNW 21:15:28 43° NE 21:19:45 10° ESE
Cosmos 1538 Rocket 4.1 21:14:34 10° SSW 21:19:43 83° WNW 21:24:57 10° NNE
Meteor 2-4 Rocket 4.4 21:16:04 10° SSE 21:21:07 36° E 21:26:20 10° NNE
Cosmos 1666 3.3 21:19:26 10° N 21:22:58 38° ENE 21:26:29 10° SSE
ISS -1.9 21:21:47 10° SSE 21:23:10 12° SE 21:24:34 10° ESE
USA 186 3.6 21:20:54 10° SSW 21:23:48 30° W 21:26:40 10° NNW
Cosmos 2315 Rocket 4.5 21:21:47 10° SSW 21:28:01 69° W 21:34:22 10° N
Cosmos 923 Rocket 4.2 21:23:09 10° S 21:28:20 55° ESE 21:33:31 10° NNE
Cosmos 2184 Rocket 4.1 21:25:03 10° N 21:31:25 67° E 21:37:40 10° SSE
Cosmos 2074 Rocket 4.1 21:25:23 10° N 21:31:37 69° E 21:37:52 10° SSE
CZ-3A R/B 2.9 21:31:57 10° SSE 21:32:42 10° SSE 21:33:08 10° SE
Cosmos 1536 Rocket 3.6 21:29:20 10° S 21:33:40 88° WNW 21:38:01 10° N
Cosmos 1437 2.8 21:32:33 10° SSW 21:35:46 82° W 21:39:01 10° N
CZ-4B DEB 3.3 21:33:11 10° S 21:36:08 53° W 21:39:04 10° NNW
Helios 1A 3.9 21:32:11 10° S 21:36:18 50° W 21:40:25 10° NNW
Lacrosse 5 rocket 4.2 21:33:54 10° WNW 21:37:22 21° NNW 21:40:53 10° NE
Meteor 1-29 3.1 21:35:47 10° N 21:39:11 75° WNW 21:42:32 10° SSW
USA 245 4.0 21:38:45 12° ESE 21:40:21 19° ENE 21:42:12 10° NNE
Meteor 1-19 Rocket 4.3 21:36:27 10° S 21:42:15 74° E 21:47:59 10° NNE
Cosmos 1656 Rocket 3.8 21:38:36 10° NNW 21:44:02 73° WSW 21:49:31 10° SSE
YAOGAN 6 2.7 21:42:45 10° S 21:46:14 73° WSW 21:49:45 10° NNW
ERS-1 Rocket 3.0 21:41:59 10° SSE 21:46:59 82° ENE 21:52:03 10° NNW
MetOp-A 4.2 21:45:09 10° SSE 21:50:27 67° ENE 21:55:47 10° N
MOS 1-B Rocket 4.1 21:46:03 10° SSE 21:51:39 67° ENE 21:58:02 10° N
Cosmos 1818 3.9 21:46:14 10° SW 21:51:40 73° NW 21:57:09 10° NNE
GENESIS II 4.2 21:47:58 10° NNW 21:51:58 75° NE 21:55:01 16° SE
Cosmos 405 Rocket 2.8 21:49:04 10° SSW 21:52:48 79° W 21:56:39 10° N
RESURS DK-1 4.4 21:49:24 10° WSW 21:53:08 32° NW 21:56:54 10° N
Cosmos 1980 Rocket 4.4 21:52:38 10° NNE 21:55:05 13° NE 21:57:31 10° ENE
Resurs 01 Rocket 4.4 21:53:14 10° WSW 21:55:38 14° W 21:58:04 10° WNW
H-2A R/B 2.8 21:52:51 14° SE 21:56:35 36° ENE 22:01:09 10° N
NOSS 2-2 (D) 3.5 21:52:41 10° SW 21:56:42 86° WNW 22:01:27 10° NE
Meteor 1-15 Rocket 4.5 21:51:21 10° N 21:56:51 54° ENE 22:01:26 15° SSE
Cosmos 1943 Rocket 4.1 21:55:19 10° NW 21:59:46 25° WSW 22:04:12 10° SSW
Cosmos 2112 Rocket 3.9 21:55:57 10° S 22:01:07 70° ESE 22:06:19 10° NNE
CENTAUR R/B 3.5 21:53:44 10° NW 22:01:31 63° WSW 22:09:18 12° SSE
Cosmos 192 4.4 21:57:01 10° S 22:01:48 57° ESE 22:06:37 10° NNE
Cosmos 1025 Rocket 3.1 21:58:34 10° S 22:02:38 53° E 22:06:48 10° NNE
Cosmos 1441 Rocket 3.0 22:01:49 10° S 22:05:33 76° E 22:09:17 10° NNE
Cosmos 1624 Rocket 4.4 22:02:01 10° NNW 22:07:11 52° ENE 22:10:57 18° SE
Nadezhda 1 Rocket 4.0 22:02:27 10° S 22:08:49 86° E 22:15:16 10° N
PSLV R/B 3.7 22:06:25 10° WSW 22:09:21 38° S 22:10:41 25° SE
Helios 1B rocket 4.4 22:05:45 10° N 22:09:26 31° WNW 22:13:05 10° SW
NOAA 11 4.3 22:07:47 11° S 22:13:00 78° WSW 22:18:28 10° NNW
Cosmos 2154 Rocket 4.0 22:08:39 10° N 22:15:03 78° E 22:20:26 15° SSE
NOSS 2-2 (C) 4.2 22:11:31 10° SW 22:15:33 59° NW 22:20:18 10° NNE
COSMOS 2406 3.5 22:11:56 10° SSW 22:17:40 73° WNW 22:23:24 10° NNE
SL-08 RB Rocket 3.7 22:14:43 19° SSE 22:17:52 70° ENE 22:22:20 10° N
ARGOS 3.2 22:13:33 15° SSE 22:18:02 87° ENE 22:23:30 10° NNW
SL-27 R/B 2.5 22:15:40 10° SSW 22:19:19 87° WNW 22:23:00 10° NNE
Landsat 7 4.3 22:21:40 22° SE 22:24:29 47° ENE 22:29:04 10° N
Cosmos 1680 Rocket 3.9 22:19:34 10° SSW 22:24:46 65° WNW 22:29:58 10° NNE
Cosmos 2278 4.2 22:19:34 10° NNW 22:25:08 49° ENE 22:28:45 21° SE
Cosmos 2056 Rocket 3.5 22:20:47 10° NNW 22:25:59 69° ENE 22:29:10 23° SSE
SPOT 5 2.6 22:23:04 19° S 22:26:10 79° WSW 22:30:32 10° NNW
H-2A R/B 3.1 22:24:49 21° ESE 22:27:08 34° ENE 22:31:14 10° N
Cosmos 2082 Rocket 3.3 22:28:03 21° SE 22:29:43 24° ESE 22:34:11 10° NE
Cosmos 405 3.9 22:29:06 10° NNW 22:32:33 45° W 22:34:56 17° SSW
Terra 2.3 22:37:12 26° SE 22:39:33 47° ENE 22:44:07 10° N
Cosmos 839 Rocket 4.3 22:33:25 10° NNW 22:39:53 79° NE 22:44:54 23° SE
Meteor 2-19 Rocket 4.4 22:33:53 10° N 22:40:02 90° WSW 22:44:22 21° S
Cosmos 2341 Rocket 4.0 22:36:46 10° N 22:43:09 89° WSW 22:47:38 21° S
Cosmos 2369 3.8 22:38:03 10° NNW 22:43:48 66° ENE 22:46:58 27° SE
Cosmos 967 Rocket 4.5 22:39:22 10° SSW 22:45:28 58° ESE 22:51:37 10° NE
Tiangong 2 2.3 22:43:44 10° SW 22:45:37 27° SSW 22:45:37 27° SSW
Cosmos 1437 Rocket 3.2 22:43:41 10° NNW 22:47:26 56° W 22:49:25 25° SSW
COSMOS 2487 3.1 22:47:21 35° ESE 22:47:29 35° ESE 22:50:46 10° NE
SPOT 1/Viking Rocket 3.7 22:44:16 22° S 22:47:38 72° WSW 22:52:48 10° NNW
Okean 2 4.1 22:50:04 14° SSW 22:53:26 52° WNW 22:57:27 10° N
Cosmos 1697 Rocket 3.4 22:48:08 10° NNW 22:53:28 42° ENE 22:56:25 24° ESE
IGS 5A 3.5 22:56:43 38° SE 22:58:08 64° ENE 23:02:17 10° N
Cosmos 1452 Rocket 3.8 22:53:02 10° NNW 22:58:14 56° ENE 23:00:34 31° SE
ISS -4.0 22:55:53 10° SW 22:59:11 82° SSE 23:02:30 10° ENE
Cosmos 2218 Rocket 4.0 22:53:22 10° N 22:59:30 65° E 23:02:38 30° SSE
Cosmos 1892 Rocket 3.8 23:01:37 22° SSW 23:04:23 68° W 23:08:49 10° N
Cosmos 1271 Rocket 4.3 23:01:53 10° NNE 23:05:01 23° ENE 23:05:37 22° E
Cosmos 2228 2.9 23:00:59 10° N 23:05:20 83° W 23:06:54 39° S
deb Chang Zheng 4 3.6 23:06:00 10° NNE 23:10:18 62° ESE 23:11:26 44° SSE
Cosmos 921 Rocket 3.3 23:06:50 10° NNW 23:11:17 63° WSW 23:12:53 37° S
Cosmos 1602 Rocket 3.9 23:10:37 42° SE 23:11:26 48° E 23:15:37 10° NNE
Cosmos 1833 Rocket 2.9 23:11:23 35° SSE 23:13:22 50° ESE 23:18:47 10° NE
Cosmos 1656 3.6 23:08:35 10° NNW 23:14:03 81° ENE 23:16:17 37° SSE
Cosmos 1066 Rocket 4.1 23:15:05 31° S 23:17:47 81° E 23:23:25 10° NNE
Lacrosse 5 rocket 4.2 23:14:41 10° NW 23:18:03 19° N 23:21:26 10° NE
Cosmos 2181 Rocket 4.3 23:13:08 16° SSW 23:18:14 66° W 23:24:33 10° N
TELKOM 3 3.6 23:16:13 10° WNW 23:18:42 79° W 23:18:42 79° W
SL-19 R/B 4.0 23:14:58 10° NNE 23:20:25 79° ESE 23:22:49 33° S
Cosmos 1766 3.4 23:20:57 10° N 23:24:48 53° ENE 23:25:11 51° ESE
CZ-4 R/B 3.9 23:19:48 10° NNE 23:24:50 70° ESE 23:26:31 41° S
Meteor 1-4 Rocket 2.5 23:26:25 10° NNW 23:30:03 70° W 23:30:20 65° SW
Cosmos 1809 Rocket 4.4 23:24:07 10° N 23:30:13 81° W 23:32:56 35° S
USA 267 3.4 23:24:40 10° ENE 23:30:59 48° SE 23:34:02 29° S
Meteor 2-14 Rocket 4.4 23:26:39 10° N 23:32:46 79° E 23:35:09 39° SSE
Cosmos 1758 4.5 23:30:03 10° NNE 23:33:35 29° ENE 23:33:51 29° E
Cosmos 2058 Rocket 4.3 23:30:03 10° NNW 23:34:04 35° W 23:35:51 25° SW
PSLV R/B 4.1 23:35:54 40° WNW 23:35:54 40° WNW 23:38:05 10° NNW
H-2A R/B 3.4 23:33:29 19° SW 23:36:04 29° W 23:40:25 10° NW
CARTOSAT-1 4.3 23:36:38 34° SW 23:37:52 44° W 23:42:01 10° NNW
Cosmos 1980 Rocket 2.5 23:34:47 10° NNW 23:40:24 58° ENE 23:42:26 37° ESE
NOSS 8 (H) 4.5 23:47:14 77° NNW 23:47:14 77° NNW 23:50:49 10° NE
SME Rocket 3.9 23:46:34 39° ESE 23:48:11 53° ENE 23:52:23 10° N
SeaSat 1 3.2 23:46:39 32° ESE 23:48:24 45° NE 23:53:06 10° NNW
Cosmos 2322 Rocket 3.7 23:43:42 10° N 23:48:36 28° NE 23:51:42 18° E
Meteor 2-16 Rocket 4.4 23:46:15 10° N 23:52:25 84° W 23:54:38 42° S
